[[{"header":{"parameterUnit":"m.s-1","parameterCategory":1,"la1":30.2991,"la2":30.254,"lo1":-89.0895,"lo2":-89.0444,"dy":0.0017,"dx":0.0017,"nx":28,"ny":28,"refTime":"2025-11-19T09:00:00:Z","depth":0,"parameterNumber":2,"parameterNumberName":"U-component_of_WINDS"},"data":[0,0,0,0,0,0,0,0,0,0,0,0,0,0,0,0,0,0,0,0,0,0,0,0,0,0,0,0,0,0,0,0,0,0,0,0,0,0,0,0,0,0,0,0,0,0,0,0,0,0,0,0,0,0,0,0,0,0,-3.3545,-3.3545,0,-3.3592,-3.3593,-3.3593,-3.3554,-3.3552,-3.3551,-3.3549,-3.3596,-3.3598,-3.3601,0,0,0,0,0,0,0,0,0,0,0,0,0,-3.3419,-3.3422,-3.3545,-3.3545,-3.3546,-3.3592,-3.3593,-3.3593,-3.3554,-3.3552,-3.355,-3.3548,-3.3595,-3.3598,-3.3601,0,0,0,0,0,0,0,0,0,0,0,0,0,-3.3471,-3.3423,-3.3545,-3.3532,-3.3531,-3.3592,-3.3593,-3.3594,-3.3555,-3.3552,-3.355,-3.3548,-3.3594,-3.3598,-3.3602,-3.3677,0,0,-3.3614,-3.3616,0,0,0,0,0,0,0,0,-3.3468,-3.3475,-3.3533,-3.3533,-3.3532,-3.3565,-3.3565,-3.3621,-3.3555,-3.3546,-3.3549,-3.3546,-3.3587,-3.3592,-3.3606,-3.3679,-3.3681,-3.3615,-3.3617,-3.3619,-3.362,0,0,0,0,0,0,0,-3.3464,-3.3473,-3.3563,-3.3534,-3.3534,-3.3524,-3.3528,-3.3576,-3.358,-3.3546,-3.3544,-3.355,-3.3586,-3.3602,-3.3607,-3.3681,-3.3615,-3.3618,-3.3621,-3.3622,-3.3818,-3.3821,0,0,0,0,0,0,-3.3462,-3.3471,-3.3562,-3.3565,-3.3494,-3.3528,-3.3533,-3.3557,-3.3579,-3.358,-3.3552,-3.3548,-3.3596,-3.3602,-3.3608,-3.3697,-3.3619,-3.3623,-3.3625,-3.3816,-3.3819,-3.3822,0,0,0,0,0,0,-3.346,-3.3471,-3.356,-3.3517,-3.3528,-3.3533,-3.356,-3.3559,-3.3575,-3.3583,-3.3584,-3.3567,-3.3594,-3.3602,-3.366,-3.3698,-3.3625,-3.3629,-3.3812,-3.3817,-3.382,-3.3875,0,0,0,0,0,0,-3.3456,-3.347,-3.3499,-3.3518,-3.353,-3.3612,-3.3562,-3.3562,-3.3582,-3.3577,-3.3598,-3.3599,-3.3593,-3.3654,-3.3664,-3.3702,-3.3632,-3.3809,-3.3814,-3.3819,-3.387,-3.3881,-3.389,0,0,0,0,0,-3.3452,-3.3512,-3.35,-3.3512,-3.3566,-3.3614,-3.3621,-3.3614,-3.3585,-3.3614,-3.362,-3.3598,-3.3693,-3.366,-3.3671,-3.3711,-3.3806,-3.3813,-3.3819,-3.3865,-3.3879,-3.389,0,0,0,0,0,0,-3.3496,-3.3514,-3.3502,-3.357,-3.3591,-3.3607,-3.3643,-3.3628,-3.3656,-3.365,-3.364,-3.3645,-3.3706,-3.3715,-3.3678,-3.3785,-3.3745,-3.3754,-3.3777,-3.3789,-3.3799,-3.3795,-3.3635,0,0,0,0,0,-3.3514,-3.3552,-3.3565,-3.3624,-3.3635,-3.3638,-3.3658,-3.3651,-3.3672,-3.368,-3.369,-3.3711,-3.3745,-3.3768,-3.38,-3.3872,-3.3875,-3.3905,-3.3915,-3.3923,-3.393,-3.3968,-3.3981,-3.3842,-3.3842,-3.3842,0,0,-3.355,-3.3565,-3.3589,-3.3633,-3.3648,-3.3687,-3.3645,-3.3688,-3.3716,-3.3687,-3.3741,-3.375,-3.3772,-3.3838,-3.3867,-3.3847,-3.397,-3.3931,-3.3937,-3.394,-3.3976,-3.3989,-3.4001,-3.3846,-3.3845,-3.3845,0,0,-3.3636,-3.3652,-3.3702,-3.3719,-3.3744,-3.3745,-3.3757,-3.3777,-3.3781,-3.3837,-3.3815,-3.3849,-3.3909,-3.3926,-3.3942,-3.4037,-3.4018,-3.4048,-3.4099,-3.4136,-3.4147,-3.4157,-3.419,-3.4202,-3.4055,-3.4055,-3.4056,0,-3.3678,-3.3737,-3.373,-3.3775,-3.3794,-3.3771,-3.3822,-3.3838,-3.3872,-3.3886,-3.3863,-3.3938,-3.3952,-3.402,-3.4044,-3.4058,-3.4071,-3.4044,-3.4147,-3.4156,-3.4165,-3.4196,-3.4209,-3.4059,-3.4058,-3.4058,-3.4058,0,-3.3787,-3.3828,-3.3866,-3.3899,-3.3924,-3.3971,-3.3971,-3.3997,-3.3989,-3.3992,-3.4049,-3.4065,-3.41,-3.4116,-3.4108,-3.4184,-3.4171,-3.4148,-3.4107,-3.4182,-3.4211,-3.4223,-3.4064,-3.4062,-3.4061,-3.4061,0,0,-3.39,-3.3931,-3.3945,-3.396,-3.3986,-3.4017,-3.4064,-3.4099,-3.4121,-3.4146,-3.4184,-3.4236,-3.4215,-3.4234,-3.4228,-3.4261,-3.4334,-3.4234,-3.4234,-3.4251,-3.4418,-3.4434,-3.4448,-3.4323,-3.4325,-3.4327,-3.4416,0,-3.3986,-3.4068,-3.4064,-3.414,-3.4178,-3.4157,-3.4198,-3.4218,-3.4224,-3.4256,-3.4262,-3.4298,-3.4269,-3.428,-3.4312,-3.4319,-3.4368,-3.4312,-3.4357,-3.4359,-3.4351,-3.4464,-3.4481,-3.4564,-3.4428,-3.443,-3.4431,0,-3.4098,-3.4127,-3.4207,-3.4228,-3.4244,-3.4281,-3.4313,-3.4345,-3.4367,-3.4369,-3.4391,-3.438,-3.4427,-3.4387,-3.4451,-3.4414,-3.4432,-3.4439,-3.4442,-3.4444,-3.4398,-3.4468,-3.459,-3.4602,-3.4449,-3.4448,-3.4446,0,-3.4171,-3.423,-3.4286,-3.43,-3.4326,-3.4353,-3.4365,-3.4385,-3.4407,-3.4435,-3.4449,-3.4483,-3.4501,-3.4527,-3.4525,-3.4496,-3.459,-3.4549,-3.4592,-3.4592,-3.4611,-3.4609,-3.4736,-3.4626,-3.4625,-3.4625,-3.4625,0,-3.4267,-3.4316,-3.4319,-3.4353,-3.4408,-3.4404,-3.4459,-3.4468,-3.4487,-3.4522,-3.4507,-3.454,-3.4536,-3.457,-3.4569,-3.4622,-3.463,-3.4633,-3.4631,-3.4633,-3.4633,-3.4644,-3.4637,-3.4629,-3.4628,-3.4627,-3.4627,0,-3.4356,-3.4361,-3.442,-3.4441,-3.4447,-3.4487,-3.4504,-3.4537,-3.4542,-3.4587,-3.4597,-3.4604,-3.4643,-3.4645,-3.4689,-3.4688,-3.4753,-3.4746,-3.4745,-3.4743,-3.4785,-3.4781,-3.4922,-3.494,-3.4819,-3.4821,-3.4822,0,-3.4417,-3.4454,-3.448,-3.4503,-3.4517,-3.4554,-3.4576,-3.4574,-3.4598,-3.4628,-3.4656,-3.4694,-3.4724,-3.4787,-3.4796,-3.483,-3.4823,-3.4871,-3.4828,-3.4829,-3.4822,-3.4819,-3.4823,-3.4878,-3.4879,-3.4881,-3.4881,0,-3.4523,-3.4523,-3.4556,-3.4591,-3.4618,-3.4645,-3.467,-3.469,-3.469,-3.4718,-3.4758,-3.4781,-3.4828,-3.4865,-3.4898,-3.491,-3.4896,-3.4895,-3.4907,-3.4908,-3.4905,-3.4906,-3.4766,-3.4891,-3.489,-3.489,-3.4889,-3.4889,-3.4599,-3.4631,-3.4655,-3.4692,-3.4711,-3.4735,-3.4767,-3.4776,-3.481,-3.4847,-3.4844,-3.4889,-3.4911,-3.4955,-3.497,-3.5004,-3.4988,-3.5005,-3.5009,-3.5012,-3.5016,-3.4902,-3.5011,-3.501,-3.501,-3.501,-3.501,0,-3.4703,-3.4717,-3.4752,-3.4788,-3.4818,-3.4803,-3.4831,-3.4856,-3.4896,-3.4918,-3.4949,-3.4995,-3.5032,-3.5044,-3.508,-3.5105,-3.5099,-3.5114,-3.5111,-3.5114,-3.5029,-3.5015,-3.5118,-3.5118,-3.5118,-3.5118,-3.5118,-3.5118,-3.476,-3.4815,-3.4819,-3.4883,-3.4896,-3.494,-3.4957,-3.4979,-3.4997,-3.505,-3.5081,-3.5089,-3.5108,-3.5145,-3.5178,-3.5181,-3.5194,-3.5212,-3.5211,-3.5131,-3.512,-3.511,-3.5097,-3.5215,-3.5215,-3.5293,-3.5294,-3.5295]},{"header":{"parameterUnit":"m.s-1","parameterCategory":1,"la1":30.2991,"la2":30.254,"lo1":-89.0895,"lo2":-89.0444,"dy":0.0017,"dx":0.0017,"nx":28,"ny":28,"refTime":"2025-11-19T09:00:00:Z","depth":0,"parameterNumber":3,"parameterNumberName":"V-component_of_WINDS"},"data":[0,0,0,0,0,0,0,0,0,0,0,0,0,0,0,0,0,0,0,0,0,0,0,0,0,0,0,0,0,0,0,0,0,0,0,0,0,0,0,0,0,0,0,0,0,0,0,0,0,0,0,0,0,0,0,0,0,0,2.3383,2.3382,0,2.3362,2.3362,2.3362,2.3324,2.3323,2.3322,2.3322,2.3297,2.3297,2.3297,0,0,0,0,0,0,0,0,0,0,0,0,0,2.3388,2.3388,2.3383,2.3382,2.3382,2.3362,2.3362,2.3361,2.3324,2.3323,2.3322,2.3321,2.3297,2.3297,2.3297,0,0,0,0,0,0,0,0,0,0,0,0,0,2.3378,2.3388,2.3383,2.3361,2.3359,2.3362,2.3362,2.3361,2.3324,2.3323,2.3322,2.3321,2.3297,2.3297,2.3297,2.3319,0,0,2.3297,2.3297,0,0,0,0,0,0,0,0,2.3379,2.3378,2.3364,2.3362,2.336,2.3344,2.3354,2.3347,2.3324,2.3337,2.3322,2.332,2.3313,2.3312,2.331,2.3317,2.3316,2.3297,2.3297,2.3297,2.3297,0,0,0,0,0,0,0,2.3379,2.3379,2.3374,2.3364,2.3362,2.3352,2.3349,2.3353,2.3331,2.3336,2.3333,2.3331,2.3312,2.331,2.3309,2.3316,2.3297,2.3297,2.3297,2.3297,2.3342,2.3343,0,0,0,0,0,0,2.3384,2.3379,2.3375,2.3374,2.3367,2.3353,2.335,2.335,2.3331,2.3327,2.3332,2.333,2.3311,2.331,2.3308,2.3334,2.3297,2.3297,2.3297,2.3341,2.3342,2.3343,0,0,0,0,0,0,2.3384,2.3383,2.3376,2.3376,2.3374,2.3354,2.3355,2.3351,2.3349,2.3329,2.3324,2.3335,2.331,2.3308,2.3317,2.3332,2.3297,2.3297,2.3339,2.3341,2.3343,2.3383,0,0,0,0,0,0,2.3384,2.3384,2.3392,2.3376,2.3374,2.3385,2.3356,2.3351,2.335,2.3346,2.333,2.3326,2.3309,2.3317,2.3317,2.3332,2.3297,2.3338,2.334,2.3342,2.3381,2.3386,2.3391,0,0,0,0,0,2.3384,2.3403,2.3393,2.3392,2.3384,2.3386,2.3385,2.3366,2.3351,2.3359,2.3346,2.3327,2.3331,2.3318,2.3318,2.3333,2.3337,2.3339,2.3342,2.3378,2.3385,2.3391,0,0,0,0,0,0,2.3419,2.3401,2.3389,2.3403,2.3397,2.338,2.3389,2.3374,2.337,2.3367,2.3343,2.3339,2.3351,2.3343,2.3329,2.3354,2.3331,2.3333,2.3358,2.3365,2.337,2.3372,2.3297,0,0,0,0,0,2.3429,2.3433,2.3416,2.343,2.3428,2.341,2.341,2.3396,2.3388,2.3384,2.3372,2.3364,2.3364,2.3364,2.3362,2.338,2.3376,2.339,2.3395,2.3399,2.3402,2.3411,2.3418,2.3352,2.3352,2.3352,0,0,2.3448,2.3439,2.3442,2.3437,2.3431,2.3435,2.3407,2.3412,2.3415,2.3385,2.3393,2.3384,2.3373,2.3387,2.3392,2.338,2.3419,2.3403,2.3407,2.3406,2.3415,2.3421,2.3427,2.3354,2.3353,2.3353,0,0,2.3486,2.3479,2.3491,2.3486,2.3477,2.3465,2.3468,2.3454,2.3447,2.3455,2.3433,2.3436,2.3436,2.343,2.3427,2.3465,2.3447,2.3465,2.3493,2.3502,2.3508,2.3512,2.3526,2.3532,2.3468,2.3468,2.3468,0,2.3511,2.3517,2.3498,2.3506,2.3505,2.348,2.3492,2.3487,2.3478,2.3477,2.3464,2.3465,2.3456,2.3468,2.3478,2.3477,2.3479,2.3466,2.3509,2.3513,2.3517,2.353,2.3535,2.347,2.347,2.347,2.347,0,2.3548,2.3553,2.3564,2.3558,2.3558,2.3567,2.355,2.3552,2.3539,2.3529,2.3538,2.3527,2.3524,2.3526,2.3512,2.3537,2.353,2.3513,2.349,2.3526,2.3538,2.3543,2.3474,2.3473,2.3472,2.3471,0,0,2.3605,2.3591,2.3595,2.3593,2.3582,2.3585,2.3594,2.3593,2.3595,2.3591,2.3597,2.3599,2.3585,2.3581,2.3567,2.3576,2.3608,2.3558,2.3558,2.3568,2.3636,2.3648,2.3654,2.3597,2.3598,2.3599,2.3637,0,2.364,2.3655,2.364,2.3658,2.3663,2.3641,2.3649,2.3643,2.3634,2.3637,2.3626,2.3628,2.3608,2.3606,2.3614,2.3603,2.3621,2.36,2.3603,2.3603,2.3606,2.366,2.3673,2.3709,2.3641,2.3642,2.3642,0,2.3682,2.3682,2.3701,2.3692,2.3693,2.3701,2.3699,2.3702,2.3695,2.3688,2.3686,2.367,2.3678,2.3657,2.3668,2.3653,2.3654,2.3649,2.365,2.3649,2.3624,2.3661,2.372,2.3726,2.365,2.3649,2.3649,0,2.3723,2.3726,2.3739,2.3738,2.3727,2.3733,2.3728,2.3721,2.3722,2.372,2.372,2.3719,2.3718,2.3718,2.3702,2.3688,2.3716,2.3692,2.371,2.371,2.3715,2.3715,2.3776,2.3717,2.3716,2.3716,2.3716,0,2.3763,2.3776,2.3757,2.3765,2.3779,2.3761,2.3775,2.3768,2.3763,2.3769,2.3749,2.3754,2.3734,2.3737,2.3725,2.3736,2.3736,2.373,2.3727,2.3732,2.3733,2.3731,2.3728,2.3718,2.3717,2.3717,2.3717,0,2.381,2.3798,2.381,2.38,2.3797,2.3808,2.3799,2.3806,2.3796,2.3804,2.3805,2.379,2.3793,2.3778,2.3778,2.377,2.3787,2.378,2.379,2.3787,2.3806,2.3805,2.3867,2.3875,2.3811,2.3812,2.3812,0,2.3836,2.3846,2.3837,2.3841,2.3838,2.3843,2.3844,2.3828,2.383,2.3825,2.3833,2.3835,2.3836,2.3842,2.3831,2.3831,2.3823,2.3845,2.3823,2.3828,2.3824,2.3823,2.3825,2.385,2.385,2.3851,2.3852,0,2.3884,2.3879,2.3882,2.3884,2.3886,2.3886,2.3885,2.3889,2.3872,2.3875,2.3879,2.388,2.3882,2.3884,2.3883,2.3878,2.3862,2.3859,2.3863,2.3868,2.3874,2.3871,2.3802,2.3857,2.3857,2.3856,2.3856,2.3856,2.3921,2.393,2.3926,2.393,2.3928,2.3928,2.3935,2.3927,2.3931,2.3932,2.3922,2.3929,2.3924,2.3921,2.3917,2.3922,2.3911,2.3917,2.3919,2.392,2.3924,2.3874,2.3922,2.3921,2.3921,2.3921,2.3921,0,2.3969,2.3966,2.3971,2.3971,2.3975,2.3962,2.396,2.3964,2.3971,2.3968,2.397,2.3976,2.3979,2.3969,2.3971,2.3976,2.3969,2.3977,2.3976,2.3976,2.3933,2.3929,2.3983,2.3983,2.3983,2.3983,2.3983,2.3983,2.3994,2.4008,2.4002,2.4015,2.4011,2.4019,2.4019,2.4019,2.4017,2.4025,2.4028,2.4022,2.4017,2.4018,2.4021,2.4018,2.4019,2.403,2.4024,2.3984,2.3978,2.3973,2.3969,2.403,2.403,2.4067,2.4067,2.4067]}]]